[[{"header":{"parameterUnit":"m.s-1","parameterCategory":1,"la1":30.2991,"la2":30.254,"lo1":-89.0895,"lo2":-89.0444,"dy":0.0017,"dx":0.0017,"nx":28,"ny":28,"refTime":"2024-05-05T09:00:00:Z","depth":0,"parameterNumber":2,"parameterNumberName":"U-component_of_WINDS"},"data":[0,0,0,0,0,0,0,0,0,0,0,0,0,0,0,0,0,0,0,0,0,0,0,0,0,0,0,0,0,0,0,0,0,0,0,0,0,0,0,0,0,0,0,0,0,0,0,0,0,0,0,0,0,0,0,0,0,0,-3.2288,-3.2288,0,-3.2281,-3.2281,-3.2281,-3.2208,-3.2206,-3.2204,-3.2202,-3.2196,-3.2198,-3.2199,0,0,0,0,0,0,0,0,0,0,0,0,0,-3.2238,-3.2239,-3.2288,-3.2288,-3.2288,-3.2281,-3.2281,-3.2281,-3.2208,-3.2206,-3.2204,-3.2202,-3.2196,-3.2197,-3.2199,0,0,0,0,0,0,0,0,0,0,0,0,0,-3.2248,-3.224,-3.2288,-3.225,-3.2247,-3.2281,-3.2281,-3.2281,-3.2209,-3.2206,-3.2203,-3.22,-3.2195,-3.2197,-3.2199,-3.2269,0,0,-3.2206,-3.2207,0,0,0,0,0,0,0,0,-3.2248,-3.225,-3.2256,-3.2253,-3.2249,-3.2242,-3.2261,-3.2277,-3.2209,-3.2223,-3.2202,-3.2199,-3.2214,-3.2214,-3.2219,-3.2268,-3.2268,-3.2207,-3.2208,-3.2209,-3.221,0,0,0,0,0,0,0,-3.2247,-3.225,-3.2285,-3.2256,-3.2252,-3.2234,-3.2233,-3.2263,-3.2234,-3.2222,-3.2216,-3.2217,-3.2211,-3.2217,-3.2218,-3.2268,-3.2207,-3.2209,-3.221,-3.2211,-3.2373,-3.2375,0,0,0,0,0,0,-3.2252,-3.225,-3.2285,-3.2285,-3.2242,-3.2237,-3.2235,-3.2247,-3.2233,-3.2229,-3.2219,-3.2213,-3.2214,-3.2216,-3.2218,-3.2297,-3.2209,-3.2211,-3.2213,-3.237,-3.2373,-3.2376,0,0,0,0,0,0,-3.2251,-3.2256,-3.2285,-3.2266,-3.2268,-3.2241,-3.2255,-3.2249,-3.2254,-3.2231,-3.2226,-3.223,-3.2212,-3.2215,-3.2256,-3.2296,-3.2212,-3.2214,-3.2366,-3.2371,-3.2375,-3.2456,0,0,0,0,0,0,-3.225,-3.2256,-3.2282,-3.2267,-3.227,-3.2324,-3.2257,-3.225,-3.2258,-3.2251,-3.224,-3.2236,-3.221,-3.2253,-3.2259,-3.2297,-3.2216,-3.2362,-3.2368,-3.2373,-3.245,-3.2463,-3.2474,0,0,0,0,0,-3.2248,-3.2305,-3.2283,-3.2288,-3.2302,-3.2326,-3.2328,-3.2297,-3.2262,-3.2287,-3.2273,-3.2236,-3.2291,-3.2258,-3.2263,-3.2304,-3.236,-3.2367,-3.2373,-3.2445,-3.246,-3.2474,0,0,0,0,0,0,-3.2326,-3.2303,-3.2278,-3.2332,-3.2332,-3.2314,-3.2346,-3.2315,-3.2325,-3.2318,-3.2279,-3.2277,-3.2325,-3.2318,-3.2282,-3.2369,-3.2319,-3.2327,-3.2372,-3.2386,-3.2398,-3.2398,-3.2218,0,0,0,0,0,-3.2349,-3.2371,-3.235,-3.2399,-3.24,-3.2373,-3.2383,-3.2359,-3.2358,-3.2357,-3.2345,-3.2345,-3.2362,-3.2374,-3.2388,-3.2449,-3.2445,-3.2479,-3.2491,-3.2501,-3.2508,-3.2539,-3.2554,-3.2398,-3.2398,-3.2398,0,0,-3.2397,-3.2387,-3.2404,-3.2415,-3.2412,-3.2435,-3.2374,-3.2401,-3.2418,-3.2361,-3.2399,-3.2391,-3.2388,-3.244,-3.2462,-3.2436,-3.2551,-3.251,-3.2518,-3.2519,-3.2547,-3.2562,-3.2575,-3.2402,-3.2401,-3.2401,0,0,-3.2497,-3.2492,-3.2533,-3.2531,-3.2527,-3.2508,-3.2518,-3.2505,-3.2497,-3.2535,-3.2492,-3.2512,-3.2542,-3.2542,-3.2546,-3.2645,-3.2612,-3.2651,-3.2714,-3.2744,-3.2756,-3.2767,-3.2802,-3.2815,-3.2658,-3.2659,-3.2659,0,-3.2558,-3.2591,-3.2557,-3.2587,-3.2593,-3.2542,-3.2583,-3.2583,-3.2584,-3.2589,-3.256,-3.2597,-3.2591,-3.2641,-3.2665,-3.2671,-3.268,-3.2652,-3.2757,-3.2768,-3.2777,-3.281,-3.2823,-3.2663,-3.2663,-3.2662,-3.2662,0,-3.2665,-3.2689,-3.2722,-3.2724,-3.2734,-3.2769,-3.274,-3.2754,-3.273,-3.2715,-3.2754,-3.2745,-3.2757,-3.2767,-3.2744,-3.2814,-3.2798,-3.2764,-3.2712,-3.2797,-3.2827,-3.2839,-3.267,-3.2668,-3.2667,-3.2666,0,0,-3.2813,-3.2796,-3.2808,-3.2808,-3.28,-3.2818,-3.2851,-3.2861,-3.2874,-3.2877,-3.2903,-3.2929,-3.2898,-3.2902,-3.2878,-3.2905,-3.2984,-3.2868,-3.2867,-3.2889,-3.3059,-3.3084,-3.3099,-3.2962,-3.2964,-3.2966,-3.3059,0,-3.2909,-3.2963,-3.2933,-3.2992,-3.3013,-3.2966,-3.2994,-3.2992,-3.2979,-3.2995,-3.298,-3.3,-3.2957,-3.2959,-3.2983,-3.2969,-3.3017,-3.2962,-3.2985,-3.2987,-3.2986,-3.3115,-3.3141,-3.323,-3.3071,-3.3073,-3.3074,0,-3.3027,-3.3034,-3.3095,-3.3082,-3.3089,-3.3116,-3.3123,-3.3139,-3.3136,-3.3124,-3.3129,-3.3099,-3.313,-3.308,-3.3122,-3.3085,-3.3093,-3.3088,-3.309,-3.3091,-3.3035,-3.3118,-3.3257,-3.327,-3.3092,-3.3091,-3.309,0,-3.3127,-3.3152,-3.3191,-3.3193,-3.3179,-3.3198,-3.3194,-3.3188,-3.3196,-3.3202,-3.3207,-3.3218,-3.3223,-3.3232,-3.3206,-3.3172,-3.3251,-3.3199,-3.3242,-3.3243,-3.326,-3.3259,-3.3402,-3.3268,-3.3267,-3.3267,-3.3267,0,-3.3236,-3.3275,-3.3236,-3.326,-3.3302,-3.3268,-3.331,-3.33,-3.3296,-3.3317,-3.3277,-3.3298,-3.3261,-3.3279,-3.3258,-3.3296,-3.3299,-3.329,-3.3284,-3.3293,-3.3294,-3.3297,-3.329,-3.3271,-3.327,-3.3269,-3.3269,0,-3.3355,-3.3331,-3.337,-3.3354,-3.335,-3.3382,-3.3368,-3.3389,-3.3373,-3.3401,-3.3405,-3.338,-3.3398,-3.3373,-3.3389,-3.3375,-3.3426,-3.3412,-3.3427,-3.3423,-3.3467,-3.3463,-3.3616,-3.3634,-3.3489,-3.349,-3.3491,0,-3.3426,-3.3454,-3.3441,-3.3452,-3.3449,-3.3468,-3.3476,-3.3443,-3.3453,-3.3452,-3.3473,-3.3488,-3.3498,-3.353,-3.3513,-3.3525,-3.3509,-3.3562,-3.3511,-3.3519,-3.3509,-3.3507,-3.3509,-3.3572,-3.3574,-3.3575,-3.3577,0,-3.3553,-3.354,-3.3552,-3.3561,-3.3572,-3.3577,-3.3579,-3.3591,-3.3557,-3.357,-3.3588,-3.3596,-3.3611,-3.3627,-3.3634,-3.3629,-3.3597,-3.3593,-3.3603,-3.3613,-3.362,-3.3616,-3.3455,-3.3589,-3.3588,-3.3587,-3.3587,-3.3586,-3.3649,-3.3672,-3.3666,-3.3681,-3.368,-3.3683,-3.3702,-3.3688,-3.3702,-3.3712,-3.3692,-3.3715,-3.3711,-3.3717,-3.3716,-3.3733,-3.371,-3.3726,-3.3729,-3.3734,-3.374,-3.3618,-3.3735,-3.3734,-3.3734,-3.3734,-3.3733,0,-3.3774,-3.3767,-3.3782,-3.3786,-3.3798,-3.3767,-3.3768,-3.378,-3.3801,-3.3799,-3.381,-3.383,-3.3845,-3.3829,-3.3841,-3.3857,-3.3843,-3.3862,-3.3859,-3.3859,-3.376,-3.375,-3.3873,-3.3873,-3.3873,-3.3873,-3.3873,-3.3873,-3.384,-3.3876,-3.3862,-3.3897,-3.3891,-3.3912,-3.3915,-3.3918,-3.3916,-3.3941,-3.3952,-3.3942,-3.3935,-3.3945,-3.3957,-3.3952,-3.3958,-3.3981,-3.3971,-3.3879,-3.3866,-3.3853,-3.3842,-3.3983,-3.3983,-3.4068,-3.4069,-3.4069]},{"header":{"parameterUnit":"m.s-1","parameterCategory":1,"la1":30.2991,"la2":30.254,"lo1":-89.0895,"lo2":-89.0444,"dy":0.0017,"dx":0.0017,"nx":28,"ny":28,"refTime":"2024-05-05T09:00:00:Z","depth":0,"parameterNumber":3,"parameterNumberName":"V-component_of_WINDS"},"data":[0,0,0,0,0,0,0,0,0,0,0,0,0,0,0,0,0,0,0,0,0,0,0,0,0,0,0,0,0,0,0,0,0,0,0,0,0,0,0,0,0,0,0,0,0,0,0,0,0,0,0,0,0,0,0,0,0,0,1.5788,1.5788,0,1.5816,1.5816,1.5816,1.5828,1.5828,1.5828,1.5828,1.5854,1.5855,1.5856,0,0,0,0,0,0,0,0,0,0,0,0,0,1.5741,1.5742,1.5788,1.5788,1.5788,1.5816,1.5816,1.5816,1.5828,1.5828,1.5828,1.5828,1.5854,1.5855,1.5856,0,0,0,0,0,0,0,0,0,0,0,0,0,1.5765,1.5742,1.5787,1.5797,1.5799,1.5816,1.5816,1.5816,1.5828,1.5828,1.5828,1.5828,1.5854,1.5855,1.5856,1.5864,0,0,1.5859,1.586,0,0,0,0,0,0,0,0,1.5763,1.5766,1.5796,1.5797,1.5798,1.5818,1.5809,1.5832,1.5828,1.5817,1.5828,1.5828,1.5842,1.5844,1.585,1.5866,1.5867,1.5859,1.586,1.5861,1.5861,0,0,0,0,0,0,0,1.5762,1.5765,1.5799,1.5796,1.5798,1.58,1.5803,1.5814,1.5829,1.5818,1.5819,1.5822,1.5843,1.5848,1.585,1.5867,1.5859,1.586,1.5861,1.5862,1.5891,1.5891,0,0,0,0,0,0,1.5759,1.5764,1.5798,1.5799,1.578,1.5801,1.5804,1.5812,1.5829,1.5832,1.5822,1.5822,1.5847,1.5849,1.5851,1.5862,1.5861,1.5862,1.5862,1.5891,1.5891,1.5891,0,0,0,0,0,0,1.5758,1.5762,1.5797,1.5782,1.5786,1.5801,1.581,1.5812,1.5818,1.5833,1.5835,1.5825,1.5847,1.585,1.5861,1.5863,1.5862,1.5863,1.5891,1.5891,1.5891,1.5884,0,0,0,0,0,0,1.5756,1.5761,1.5765,1.5782,1.5787,1.5807,1.581,1.5813,1.582,1.5821,1.5836,1.5839,1.5847,1.5859,1.5862,1.5865,1.5864,1.5891,1.5891,1.5891,1.5884,1.5884,1.5884,0,0,0,0,0,1.5755,1.5762,1.5765,1.5769,1.5793,1.5807,1.581,1.582,1.5821,1.5824,1.5833,1.5838,1.5863,1.586,1.5864,1.5867,1.5891,1.5891,1.5891,1.5884,1.5884,1.5884,0,0,0,0,0,0,1.5744,1.5764,1.5768,1.5781,1.5792,1.5809,1.5814,1.5819,1.583,1.583,1.5841,1.5844,1.5855,1.5862,1.5859,1.5876,1.5877,1.5878,1.5871,1.5871,1.5871,1.5869,1.5865,0,0,0,0,0,1.5743,1.5754,1.577,1.578,1.5785,1.5799,1.5805,1.5812,1.5824,1.5828,1.5838,1.5849,1.5859,1.5865,1.5875,1.5885,1.5889,1.5889,1.5889,1.5889,1.5889,1.5895,1.5896,1.5892,1.5892,1.5892,0,0,1.5741,1.5754,1.576,1.5778,1.5788,1.5798,1.5802,1.5813,1.582,1.5829,1.5841,1.5849,1.5861,1.5872,1.5877,1.5878,1.5891,1.5889,1.5889,1.589,1.5896,1.5896,1.5896,1.5892,1.5892,1.5892,0,0,1.5744,1.5754,1.5763,1.5773,1.5787,1.5796,1.5798,1.5814,1.582,1.5832,1.5839,1.5847,1.5864,1.5873,1.588,1.5885,1.5889,1.5888,1.5887,1.5892,1.5893,1.5893,1.5895,1.5895,1.5888,1.5888,1.5888,0,1.5739,1.5756,1.5767,1.5777,1.5785,1.5795,1.5804,1.5812,1.5829,1.5833,1.5834,1.5856,1.5865,1.5878,1.588,1.5885,1.5887,1.5886,1.5892,1.5892,1.5893,1.5895,1.5895,1.5888,1.5888,1.5888,1.5888,0,1.575,1.5761,1.5766,1.5783,1.5791,1.5801,1.5813,1.582,1.5826,1.5834,1.5846,1.5857,1.587,1.5873,1.5879,1.5887,1.5887,1.589,1.5891,1.5893,1.5894,1.5895,1.5888,1.5888,1.5888,1.5888,0,0,1.5746,1.5769,1.5771,1.5779,1.5795,1.5804,1.5813,1.5826,1.5832,1.5843,1.5851,1.5865,1.5868,1.5875,1.5882,1.5887,1.589,1.5889,1.589,1.5889,1.59,1.5898,1.5898,1.5894,1.5894,1.5894,1.5899,0,1.575,1.5769,1.5779,1.5793,1.5803,1.5813,1.5821,1.5832,1.584,1.5849,1.5857,1.5867,1.587,1.5875,1.588,1.5889,1.5893,1.5889,1.5901,1.5901,1.5897,1.5899,1.5897,1.5901,1.59,1.59,1.59,0,1.5758,1.577,1.5785,1.5801,1.5805,1.5813,1.5825,1.5834,1.5846,1.5852,1.586,1.5867,1.5876,1.5877,1.5891,1.5888,1.5893,1.5898,1.5898,1.59,1.59,1.5901,1.5903,1.5903,1.5901,1.5901,1.5901,0,1.5753,1.5773,1.5785,1.5791,1.581,1.5815,1.5822,1.5834,1.5842,1.5852,1.5857,1.5868,1.5875,1.5883,1.5892,1.5892,1.5905,1.5906,1.5909,1.5909,1.5911,1.5911,1.5914,1.5915,1.5915,1.5915,1.5915,0,1.5757,1.5766,1.5783,1.579,1.58,1.5812,1.5821,1.583,1.584,1.5849,1.5857,1.5864,1.5876,1.5885,1.5892,1.5902,1.5905,1.5909,1.5911,1.5909,1.5908,1.5912,1.5912,1.5915,1.5915,1.5915,1.5915,0,1.5754,1.5766,1.5779,1.5796,1.58,1.5807,1.5821,1.5828,1.5836,1.5847,1.585,1.5863,1.5873,1.5884,1.5898,1.5903,1.5912,1.5915,1.5909,1.591,1.5912,1.5912,1.5918,1.5919,1.5919,1.5919,1.5919,0,1.5756,1.5763,1.5781,1.5787,1.5795,1.5806,1.5813,1.5824,1.5832,1.5846,1.5851,1.5863,1.5873,1.5889,1.59,1.591,1.5913,1.5915,1.5915,1.5912,1.5913,1.5912,1.5913,1.5914,1.5914,1.5914,1.5914,0,1.5757,1.5763,1.5774,1.5787,1.5796,1.5807,1.5817,1.5822,1.5835,1.5843,1.5855,1.5862,1.5877,1.5888,1.59,1.5908,1.5913,1.5914,1.5915,1.5913,1.5909,1.5911,1.5908,1.5914,1.5914,1.5914,1.5914,1.5914,1.5757,1.5764,1.5777,1.5789,1.5799,1.5808,1.5816,1.5825,1.5836,1.5849,1.5855,1.5867,1.5878,1.5895,1.5902,1.5911,1.5912,1.5914,1.5914,1.5915,1.5914,1.5908,1.5913,1.5913,1.5913,1.5913,1.5913,0,1.5759,1.5768,1.5779,1.5794,1.5803,1.5808,1.5821,1.5828,1.5838,1.5849,1.5859,1.5872,1.5883,1.5894,1.5905,1.591,1.5913,1.5913,1.5912,1.5914,1.5912,1.591,1.591,1.591,1.591,1.591,1.591,1.591,1.5761,1.5773,1.578,1.5796,1.5805,1.5818,1.5824,1.5833,1.5842,1.5856,1.5866,1.5873,1.5884,1.5896,1.5906,1.5909,1.5913,1.5912,1.5916,1.5914,1.5914,1.5914,1.5912,1.5913,1.5913,1.5917,1.5917,1.5917]}]]